Wind_Speed
27 28 28 29 30 31 32 33 34 35 36 37 38 39 40 40 41 42 43 44 45 46 47 48 49 50 52 53 54 55 57 58 59 60 62 63 64 66 67 69 70 71 72 73 75 76 77 78 80 80 81 81 82 82 82 83 84 84 85 86 86 87 88 88 89 90 91 91 92 93 94 95 96 97 97 98 98 98 99 99 100 100 100 101 101
31 31 32 32 33 33 34 35 36 37 38 39 40 40 41 41 42 43 44 46 47 48 49 50 51 52 53 55 56 57 59 60 61 62 64 65 67 68 69 71 72 73 74 75 76 78 79 80 81 81 82 82 83 83 83 84 85 86 86 87 87 88 89 89 90 91 91 92 93 94 95 95 96 97 98 99 99 100 100 100 101 101 102 102 102
33 34 34 34 35 35 36 37 37 37 38 39 40 41 42 43 44 45 47 48 49 49 51 52 54 54 55 57 58 59 61 62 64 65 66 68 69 70 72 73 74 75 76 78 79 80 81 82 82 82 83 83 84 84 85 85 86 86 87 87 88 88 89 90 91 92 92 93 94 95 96 97 98 99 99 100 100 101 101 102 102 103 103 103 103
33 34 34 35 35 36 37 38 38 38 39 41 42 43 44 45 46 47 48 49 51 52 53 55 56 57 58 59 60 62 63 65 66 67 69 70 72 73 74 76 77 78 79 80 81 82 82 83 83 83 84 84 85 85 86 86 86 87 87 88 88 89 90 91 92 93 94 95 96 97 98 98 99 100 101 101 101 102 103 103 104 104 104 105 105
33 33 34 35 36 37 38 40 40 40 41 43 44 45 45 46 47 49 50 51 52 54 55 56 58 59 60 62 63 64 66 67 68 70 71 72 73 74 76 78 79 80 81 82 83 83 83 83 84 84 85 85 85 86 86 86 87 87 88 89 89 90 91 92 94 95 96 97 98 99 100 100 101 101 102 102 103 104 105 105 105 105 106 106 106
34 34 35 35 37 38 40 42 42 42 43 44 45 46 47 48 49 50 52 53 54 56 57 58 60 61 63 64 66 67 68 69 70 72 73 74 75 76 78 79 80 80 81 82 83 83 84 84 85 85 85 85 85 86 86 87 87 88 89 90 91 92 93 95 96 97 98 99 100 101 101 102 102 103 104 104 105 106 106 106 106 106 106 106 106
36 36 36 38 39 41 42 44 45 45 45 46 47 48 49 50 51 52 53 55 56 57 58 60 62 63 65 67 68 69 70 71 72 73 74 75 76 77 78 79 80 81 81 82 83 83 84 84 85 85 85 86 86 86 87 88 88 89 91 92 93 94 96 97 98 99 100 101 102 103 103 104 104 105 105 106 107 107 107 107 107 107 107 107 106
38 38 39 40 42 43 44 46 46 47 48 48 49 50 51 52 53 54 55 57 58 59 61 62 64 66 67 69 70 71 72 73 74 75 76 76 77 78 79 79 80 81 81 82 82 83 84 84 85 85 86 86 87 87 88 89 90 91 93 94 95 96 98 99 100 101 102 103 104 105 105 105 106 106 106 107 108 109 109 108 108 107 107 106 106
41 42 43 44 45 45 46 47 48 49 49 50 51 52 53 54 55 56 58 59 60 62 63 64 66 67 69 70 72 73 74 75 76 76 76 77 77 78 79 79 80 80 81 81 82 83 83 84 85 86 86 87 88 89 90 91 92 93 95 96 97 99 100 101 102 103 104 105 106 106 107 107 107 108 108 109 109 110 109 109 108 107 106 106 105
44 45 46 47 47 48 48 49 50 51 51 52 53 54 55 56 57 59 60 61 62 63 64 66 67 69 70 71 73 74 75 76 76 77 76 77 77 78 78 78 79 80 80 81 82 83 84 85 86 87 88 89 90 91 92 93 95 96 97 99 100 101 102 103 104 105 106 107 107 108 108 109 109 110 110 110 110 110 109 108 107 106 105 104 102
47 48 48 49 49 50 51 52 53 54 54 55 55 56 57 58 60 61 62 63 64 65 66 67 69 70 71 72 73 75 75 76 76 77 77 77 77 77 77 78 79 79 81 81 82 83 84 86 87 89 91 92 93 94 95 96 98 99 100 101 102 103 104 105 105 106 107 108 109 109 110 110 111 110 110 110 110 109 108 107 106 105 103 101 100
50 50 51 51 51 52 53 54 56 57 57 57 58 58 59 60 61 62 64 65 65 66 67 69 70 71 71 72 73 74 74 75 75 76 76 76 76 76 77 78 79 80 81 82 83 85 86 88 90 92 93 95 96 97 98 100 100 101 102 103 103 105 106 106 107 108 109 110 111 111 112 112 111 110 109 108 108 107 107 105 103 102 100 98 96
52 53 53 53 54 55 55 57 58 59 60 60 60 61 61 62 63 64 64 66 66 67 68 69 70 70 70 70 72 72 73 73 73 74 75 76 76 77 77 79 80 81 83 84 86 87 89 91 93 95 97 98 100 101 102 102 103 104 104 105 105 106 107 108 108 110 111 112 112 113 113 111 109 108 106 106 106 105 104 102 99 97 96 94 93
54 55 55 55 56 57 58 58 59 61 61 62 62 62 63 63 64 65 65 67 68 68 68 69 69 68 68 69 69 70 71 71 71 72 74 76 77 78 79 80 82 84 86 87 89 91 92 94 96 98 100 102 103 104 104 105 106 106 106 107 107 107 108 109 110 111 112 113 113 113 112 109 106 105 104 104 104 101 99 96 94 93 92 91 89
56 56 57 57 57 58 59 59 60 61 62 63 63 64 64 64 65 65 66 67 67 67 68 68 67 67 66 67 67 68 69 71 71 73 75 77 79 81 82 84 85 87 89 91 93 94 96 97 99 101 103 104 105 106 107 107 108 108 108 108 108 109 110 110 112 113 113 114 114 112 109 105 104 103 102 100 98 95 93 92 91 90 88 87 86
57 57 58 58 58 59 60 61 61 62 63 64 64 64 64 64 65 65 65 66 66 66 66 66 66 66 65 65 66 68 70 73 74 75 77 79 82 84 86 88 89 91 93 95 96 97 99 100 102 104 105 107 108 108 109 109 109 110 110 110 110 110 110 111 113 114 114 113 111 108 105 103 101 99 96 93 92 91 89 88 87 86 85 84 82
57 57 58 60 61 61 62 61 61 61 62 62 63 63 63 63 63 63 64 64 64 65 65 65 65 66 66 67 69 70 72 75 77 79 80 82 85 87 90 92 93 95 96 97 99 100 102 103 105 106 108 109 110 111 111 111 112 112 112 112 111 110 111 113 113 113 112 110 108 105 102 98 94 91 89 89 89 88 86 84 83 82 81 80 79
58 59 60 61 61 61 60 60 59 59 60 60 61 62 62 62 62 62 62 62 63 64 66 66 67 70 71 71 72 74 75 77 80 81 83 85 88 90 93 95 96 97 99 100 101 103 104 106 107 109 110 111 112 113 113 113 113 113 114 113 111 111 112 112 111 109 107 106 105 101 95 91 88 87 86 86 86 84 83 81 79 79 78 77 76
57 58 58 58 58 58 58 58 58 58 59 59 60 60 60 60 61 62 63 64 65 66 68 70 71 73 74 75 76 78 79 81 83 85 86 88 91 93 95 97 98 100 101 102 104 106 107 108 109 111 112 114 115 115 115 115 115 115 114 111 110 111 111 109 107 105 105 104 100 93 88 86 84 83 83 83 82 81 79 77 77 76 75 75 74
55 55 55 56 56 56 56 56 57 58 58 59 59 59 60 62 63 64 66 67 69 70 71 74 75 77 78 79 80 81 82 84 86 87 89 91 93 95 97 99 100 102 104 105 107 108 109 110 111 112 114 115 116 116 116 115 114 113 111 109 110 109 107 105 104 103 102 99 93 88 86 83 80 79 80 80 78 77 75 74 74 74 73 72 71
54 54 54 55 55 55 55 56 57 57 58 59 61 62 63 65 66 68 69 70 72 73 74 76 78 80 81 83 83 84 86 87 88 90 91 93 95 97 100 101 103 105 106 107 109 109 110 111 113 114 115 116 117 116 115 113 111 109 108 108 107 105 103 103 101 99 97 93 89 86 83 78 75 75 76 75 74 73 73 72 72 72 71 69 69
53 53 54 54 55 56 57 58 59 60 61 62 64 65 66 67 68 70 71 73 74 75 77 79 81 83 84 85 86 87 88 90 91 92 94 95 97 99 102 104 105 107 108 109 110 110 111 112 113 114 115 115 115 114 112 110 109 108 107 105 104 103 101 99 97 94 92 89 87 83 79 74 71 72 73 72 72 71 71 70 70 70 69 69 70
55 55 56 57 57 59 60 61 62 63 64 65 66 67 68 69 70 72 73 75 77 78 80 81 83 84 86 87 88 90 92 93 94 95 96 98 99 101 103 105 107 109 110 110 110 111 112 112 113 114 114 114 113 110 109 110 110 108 105 104 103 101 99 96 93 91 89 86 82 78 74 70 68 69 70 70 70 70 69 68 68 69 70 70 71
58 59 60 60 61 62 62 63 64 65 66 67 68 69 70 71 72 74 75 77 79 80 82 83 85 86 87 89 90 92 94 95 97 97 99 100 101 103 105 107 108 110 110 110 111 111 111 112 112 113 112 111 108 108 111 111 108 105 104 104 102 98 96 93 91 88 85 81 77 74 71 67 65 67 68 67 68 68 69 69 69 70 71 72 73
61 61 62 62 63 64 64 65 66 67 68 69 70 71 72 73 74 76 77 79 81 82 83 85 86 87 88 90 92 94 96 98 99 100 101 103 104 105 106 108 109 110 110 111 110 110 110 111 111 110 109 107 107 110 111 108 105 105 104 102 98 95 93 90 88 84 80 76 73 70 68 66 65 66 66 66 68 69 70 70 70 71 73 74 75
63 63 64 64 64 65 66 66 68 68 69 70 71 72 73 74 76 77 79 80 82 83 85 86 87 89 90 92 93 95 97 99 101 102 104 105 106 108 109 110 111 111 111 110 109 108 108 108 108 107 106 106 108 110 107 105 105 104 101 98 95 92 90 88 84 80 76 73 71 69 67 65 64 65 66 67 69 71 72 73 73 73 74 75 76
65 65 65 65 66 67 67 68 69 69 70 71 72 73 74 76 77 79 80 82 83 85 86 88 89 91 92 94 95 96 99 101 102 104 106 108 109 111 112 112 113 113 112 109 107 107 107 106 106 106 106 107 108 107 104 103 101 99 96 94 92 89 87 84 80 77 74 72 71 69 67 65 65 67 69 70 72 74 75 75 74 74 75 76 78
66 66 67 67 68 69 69 70 70 71 72 72 73 75 76 77 79 80 82 84 85 86 88 89 91 93 94 95 97 98 100 102 104 107 109 110 112 114 115 115 115 114 111 107 105 106 106 103 104 107 108 107 106 103 102 99 96 94 93 90 88 87 84 81 78 76 74 72 71 69 69 69 69 70 71 72 73 74 75 75 75 75 77 78 79
68 68 69 70 71 71 71 72 72 72 73 74 76 77 78 79 80 82 84 86 87 88 90 91 93 94 95 97 98 100 102 104 107 109 111 113 115 116 116 117 117 114 109 104 103 104 104 101 102 106 108 105 101 99 97 94 92 91 88 86 85 83 80 78 76 75 74 73 72 71 71 71 70 70 71 72 73 74 75 76 76 77 78 79 80
69 70 71 71 72 72 73 73 74 74 75 76 78 79 79 81 83 85 86 88 89 90 92 94 95 96 98 99 101 102 104 107 109 111 113 115 117 117 117 117 116 111 107 103 101 102 102 102 104 106 105 100 96 94 92 90 88 86 84 83 81 79 78 76 75 74 73 72 71 71 70 70 70 71 71 72 73 75 77 78 79 79 80 80 81
70 71 72 72 73 73 74 75 76 76 77 78 79 80 81 83 85 86 88 90 91 93 95 96 97 99 100 102 103 105 107 108 110 112 114 116 117 117 116 115 112 108 103 100 100 101 102 104 104 103 99 94 91 89 87 86 83 82 80 79 78 77 75 73 72 71 70 69 69 69 70 71 71 72 73 75 76 78 80 82 83 83 83 84 84
72 72 73 73 74 75 76 76 77 78 79 80 81 82 84 85 87 88 90 92 94 95 97 98 99 101 102 104 105 107 108 109 111 113 116 117 118 117 115 112 108 104 99 98 99 100 101 102 100 96 92 90 87 86 84 81 79 78 76 75 73 71 70 69 68 68 67 68 68 69 71 72 74 75 76 78 79 81 83 84 85 86 87 87 88
73 73 74 75 76 76 77 78 78 79 80 82 83 85 86 87 89 91 93 94 95 97 98 99 101 102 103 105 106 108 110 110 112 114 116 117 117 116 112 107 103 100 97 97 98 97 98 97 93 90 88 86 84 82 79 77 75 73 71 69 68 67 66 67 67 66 67 68 68 70 71 72 74 75 76 78 79 81 82 83 84 85 86 88 89
74 75 76 76 77 77 78 79 80 81 82 84 86 87 88 89 91 93 94 95 96 98 99 100 102 103 104 105 107 108 110 111 114 116 117 117 116 112 106 101 98 97 96 95 95 93 92 90 88 86 84 82 80 77 75 72 70 67 66 65 65 66 66 66 66 67 68 68 69 69 70 70 71 73 74 76 77 78 80 81 82 83 85 87 89
75 76 77 77 78 78 79 80 81 83 85 87 88 89 90 91 93 95 96 96 97 98 100 101 102 104 105 106 107 108 111 112 115 116 116 115 112 106 100 95 92 92 92 92 90 88 86 85 83 82 79 77 74 72 70 67 65 64 64 64 65 66 66 66 67 68 68 68 69 69 70 70 71 73 74 76 77 79 80 82 83 84 86 87 89
76 77 77 78 79 79 80 81 83 85 87 88 89 90 91 93 94 96 96 97 98 99 100 101 102 103 105 106 107 109 112 114 115 115 114 111 106 100 95 91 88 88 88 87 85 83 81 79 78 76 73 71 68 66 64 63 63 63 64 64 65 65 66 66 67 67 67 68 68 69 70 71 72 74 75 77 78 80 82 83 85 86 87 88 89
77 78 78 79 80 81 82 83 85 86 88 89 90 91 93 94 95 96 96 97 98 99 100 101 102 103 105 107 108 111 113 114 114 112 110 105 100 95 91 87 84 83 83 82 81 79 76 74 71 69 67 64 63 61 61 62 62 63 64 64 65 65 65 66 66 66 66 67 68 69 71 72 73 75 76 78 79 81 83 84 85 86 87 88 89
78 79 80 81 82 82 83 85 86 87 89 90 91 92 94 95 95 96 97 98 99 100 101 102 102 104 106 108 110 112 113 113 111 109 105 100 95 90 86 82 81 80 79 78 76 74 71 69 66 64 62 60 60 60 61 61 62 63 64 65 65 65 65 65 66 67 67 68 69 71 72 73 75 76 78 79 81 82 84 85 87 88 89 90 90
80 81 81 82 83 84 84 85 86 88 90 91 92 93 94 95 96 97 98 98 99 101 101 102 103 106 108 109 111 112 112 111 108 104 100 95 90 85 81 79 77 77 76 74 72 69 66 63 61 59 58 58 59 60 61 62 63 65 66 66 66 65 65 66 67 68 69 71 71 72 73 75 76 78 80 81 83 84 86 87 89 90 91 92 92
81 82 83 84 84 84 85 86 88 90 91 92 94 94 95 96 96 98 99 99 100 102 102 102 104 106 108 109 110 110 109 108 104 99 94 90 85 79 76 74 73 72 71 69 66 64 61 58 57 57 57 58 59 61 63 65 66 67 67 67 67 67 67 68 69 69 71 72 73 74 75 77 78 80 82 84 85 86 87 88 89 91 92 92 92
83 84 85 85 85 86 87 88 90 92 93 94 95 95 96 96 97 98 99 100 101 102 102 103 105 107 108 108 108 107 106 103 99 93 89 84 79 75 71 70 68 67 66 63 61 59 57 56 57 57 59 60 62 64 66 67 68 68 69 69 69 70 71 70 70 71 72 74 75 77 78 79 81 82 83 85 87 88 88 89 90 91 92 93 93
86 86 86 86 86 87 88 89 91 93 94 95 96 97 97 98 98 99 100 101 102 102 103 104 105 106 106 105 105 104 102 98 94 89 84 78 74 71 68 67 65 64 62 60 59 58 57 58 59 60 61 63 65 67 68 69 70 70 71 72 73 73 73 73 73 74 75 76 78 80 80 81 82 84 85 87 89 90 91 91 92 93 94 94 94
87 87 88 88 88 88 89 91 92 94 95 96 97 98 98 99 99 100 101 101 101 102 103 104 105 104 103 102 102 101 98 94 91 86 80 74 70 67 66 65 64 62 61 60 59 59 60 60 61 63 64 66 67 69 70 71 72 73 74 75 75 75 75 75 75 76 77 79 80 82 83 84 85 86 87 89 91 93 94 94 94 95 95 96 96
89 89 89 89 89 90 91 92 93 95 96 97 98 99 99 100 100 100 101 101 101 101 102 103 103 102 101 100 100 98 95 91 88 83 77 72 68 65 64 63 63 62 61 60 60 60 60 62 64 65 67 68 70 72 73 74 75 75 76 75 75 75 75 76 77 78 79 80 81 83 86 87 88 89 90 91 93 96 97 97 97 97 98 98 97
90 90 91 91 91 91 92 93 94 95 97 98 98 99 100 100 100 100 101 100 100 101 102 102 101 99 99 98 97 95 91 87 84 79 74 69 67 65 63 62 62 61 61 60 60 60 62 64 66 68 70 72 74 75 76 76 76 76 75 74 74 75 77 78 78 79 81 82 83 85 87 89 90 92 93 94 96 98 99 100 101 100 101 100 100
91 92 92 92 92 92 93 93 94 96 97 98 99 100 100 100 100 99 99 99 100 101 101 100 98 98 97 96 93 90 87 83 79 75 70 67 66 65 63 62 61 61 61 61 62 63 65 67 69 72 73 75 76 77 77 77 76 76 76 75 76 77 78 79 80 81 82 84 85 86 88 91 92 94 96 96 98 100 102 103 104 104 104 104 103
93 93 94 94 94 93 93 94 94 96 97 98 99 100 100 99 99 98 98 98 99 99 99 97 96 96 95 92 88 86 82 79 76 72 68 66 65 64 63 63 63 63 64 64 65 66 68 70 72 73 75 76 77 77 77 76 76 76 76 76 76 78 79 80 81 82 84 85 86 87 89 92 94 96 98 99 101 103 105 106 107 107 107 106 106
95 95 95 95 94 94 94 94 95 96 97 98 98 98 99 99 98 97 97 97 97 97 96 94 94 94 91 88 85 82 79 77 75 72 69 68 67 65 64 64 64 65 66 67 68 69 71 72 73 74 75 75 75 76 75 75 75 75 75 76 77 79 80 81 82 83 85 87 88 89 90 93 95 98 100 102 104 106 108 110 111 111 110 110 109
96 96 96 95 95 95 94 94 95 96 97 98 97 96 97 98 98 97 96 96 96 94 92 92 92 90 87 85 84 82 79 77 75 73 71 70 69 68 67 66 67 68 69 70 71 72 73 73 73 74 74 74 75 75 75 75 75 76 77 78 79 80 81 83 83 84 86 88 89 91 92 94 97 99 101 104 106 110 113 114 115 115 114 113 112
96 96 96 96 95 95 95 95 95 96 97 97 96 95 95 96 97 97 96 95 93 91 90 91 91 88 86 85 84 82 80 78 76 74 73 71 69 68 67 67 68 69 70 70 71 73 73 73 72 73 74 74 74 74 75 76 77 78 79 80 80 81 83 84 85 86 87 89 91 92 93 96 99 101 103 106 110 114 117 117 117 118 119 117 116
96 96 96 96 96 96 95 95 95 96 96 95 95 94 94 95 95 95 94 93 90 89 90 90 89 87 86 84 83 82 80 79 77 76 75 74 72 71 70 70 71 71 71 70 71 72 72 72 73 73 74 74 75 76 77 78 79 80 81 82 82 83 84 85 86 87 88 90 92 93 95 97 100 102 105 109 113 117 119 119 120 122 123 122 120
Wind_Direction
313 313 313 314 315 316 316 316 316 316 316 316 316 315 315 314 314 313 313 313 312 312 312 312 312 313 313 314 314 314 313 313 314 314 314 314 314 314 314 314 314 314 314 314 314 313 313 314 314 315 315 315 315 315 315 315 315 315 315 315 315 315 314 314 314 313 313 312 312 312 312 312 312 313 313 314 315 316 317 317 317 317 317 317 317
314 314 315 315 316 316 317 316 315 315 315 315 315 314 313 312 311 311 312 312 311 311 311 312 312 312 312 312 312 311 312 312 312 313 313 313 313 313 313 313 313 312 312 313 313 313 314 314 315 315 315 315 315 315 315 315 315 315 315 315 314 314 314 313 313 312 312 312 312 312 312 312 313 313 314 315 316 317 317 317 317 317 317 317 317
312 312 313 313 314 315 314 313 312 312 312 311 310 308 308 308 310 311 311 310 310 310 311 311 311 311 310 310 310 310 311 311 311 311 311 311 312 312 312 312 312 312 312 313 314 314 315 315 315 315 315 315 315 316 316 315 315 315 314 314 313 313 313 312 312 312 312 312 312 312 312 313 313 314 315 316 317 317 317 317 316 316 316 316 316
306 307 308 308 310 309 308 308 307 307 306 305 304 305 306 308 309 309 309 309 309 310 310 310 310 309 309 310 310 310 310 310 310 310 311 311 311 312 312 312 312 313 314 314 315 315 315 315 315 315 315 315 315 315 315 315 314 314 314 313 313 313 312 312 312 312 312 312 313 313 313 313 314 315 315 316 317 317 316 316 316 316 316 315 315
302 304 305 306 306 305 304 304 303 303 303 303 304 305 307 307 307 307 307 308 308 309 309 309 309 309 309 309 309 309 309 309 310 310 310 311 311 312 312 312 313 314 315 315 315 315 315 315 315 315 315 315 315 314 314 314 314 314 313 313 313 313 313 313 313 313 313 313 313 313 313 314 314 315 316 316 316 316 316 315 315 315 315 315 315
302 303 304 304 304 304 303 303 302 303 303 304 305 305 305 306 306 306 307 307 307 308 308 308 309 308 309 309 309 309 309 309 310 310 310 310 311 312 312 313 313 314 314 314 314 314 315 315 315 314 314 314 314 314 314 314 314 313 313 313 313 313 313 313 313 313 313 313 313 313 314 314 315 315 316 316 316 315 315 315 314 314 314 314 314
300 301 302 302 302 302 302 301 302 303 303 304 305 305 305 306 306 306 306 306 306 307 307 308 308 308 308 309 309 309 309 309 310 310 310 311 312 312 313 313 313 314 314 314 314 314 314 314 314 314 314 314 314 314 314 314 314 313 313 314 314 314 313 313 313 313 313 313 313 313 314 314 314 315 315 315 315 314 314 314 314 314 314 314 314
296 297 298 299 299 299 299 299 300 301 303 303 304 304 305 305 305 305 305 305 305 306 306 307 307 308 308 309 309 309 309 310 310 311 311 312 313 312 312 313 313 313 313 313 313 313 313 313 314 314 314 314 314 314 314 314 314 314 314 314 314 314 313 313 313 313 313 313 313 313 313 313 314 314 314 314 314 313 313 313 313 313 314 314 314
294 294 295 295 295 295 296 297 298 300 301 301 302 302 302 302 302 303 303 304 304 305 306 306 307 308 308 309 310 310 310 310 311 311 311 312 312 312 312 312 312 312 313 313 313 313 314 314 314 314 314 314 314 314 314 314 314 314 314 314 314 314 313 313 313 313 313 312 312 312 313 313 313 313 314 314 313 313 313 313 313 313 314 314 314
292 292 292 292 292 293 294 295 296 297 298 298 298 298 299 299 300 301 302 302 303 304 305 306 307 308 309 309 310 310 310 310 311 311 311 311 311 312 312 312 312 312 313 313 313 314 314 314 314 314 314 314 314 314 314 314 314 314 314 314 314 314 313 313 312 312 312 312 312 312 312 312 313 314 314 314 313 313 313 313 313 313 314 314 314
290 290 290 290 290 291 292 293 294 295 295 296 296 297 297 298 299 300 301 302 303 304 306 307 307 308 309 309 309 309 310 310 311 311 311 311 311 312 312 312 312 313 313 313 314 314 315 315 315 315 315 315 315 315 315 315 315 314 314 314 314 313 313 312 312 312 311 311 311 312 312 312 313 314 314 313 313 313 313 313 313 314 314 315 315
289 289 289 289 290 291 292 293 294 294 295 296 297 297 298 299 300 301 302 303 304 305 306 307 307 307 308 308 308 309 310 310 310 311 311 311 311 312 312 313 313 313 313 314 315 315 316 316 316 316 315 315 315 315 315 315 315 314 314 314 313 313 312 312 312 311 311 311 311 311 312 312 314 314 314 313 313 313 313 313 314 314 315 315 315
289 289 290 291 292 292 293 294 295 296 296 297 298 299 299 300 301 302 303 303 304 304 305 305 306 306 307 307 308 309 309 309 310 311 311 311 312 312 313 313 314 314 315 316 316 317 317 317 317 316 316 316 316 316 316 315 314 314 314 313 313 312 312 312 311 311 311 311 311 311 312 313 314 314 314 313 313 313 313 314 314 315 315 315 315
289 290 291 292 293 294 294 295 296 297 298 299 300 300 300 300 301 302 302 302 303 304 304 304 304 305 306 306 307 308 308 309 310 310 311 312 312 313 314 314 315 316 317 317 318 318 318 318 317 317 316 316 316 316 315 314 314 314 313 313 312 312 312 311 311 311 311 311 311 311 313 314 315 314 314 313 313 313 314 314 315 315 315 315 315
290 291 292 292 293 294 294 295 296 297 298 299 299 299 299 300 301 301 302 302 302 303 303 303 304 304 305 306 307 308 309 309 310 311 312 313 314 315 316 316 317 318 319 319 319 319 319 318 317 317 316 316 316 315 314 314 313 313 313 312 312 312 312 311 311 311 311 311 311 312 314 316 315 315 314 313 313 313 314 315 315 315 315 315 316
290 291 291 292 292 293 294 295 296 296 297 297 298 298 299 300 300 301 301 302 302 302 303 303 304 305 306 307 308 309 310 311 312 313 314 315 316 317 318 318 319 320 320 320 320 320 319 318 318 317 316 315 315 314 314 313 313 313 313 312 312 312 311 311 311 311 311 312 312 314 316 317 316 315 314 314 313 314 315 316 316 316 316 316 317
288 289 290 291 291 292 293 294 295 296 296 297 298 299 299 300 300 301 301 301 302 303 304 305 306 307 308 309 310 311 312 313 314 315 316 317 318 319 320 320 321 321 320 320 320 319 319 318 317 316 316 315 314 314 314 313 313 313 312 312 312 311 311 311 312 312 312 313 314 316 318 317 316 316 315 314 314 315 316 316 316 317 317 318 318
286 287 289 290 291 293 294 295 296 296 297 298 298 299 299 300 300 301 302 302 304 305 306 308 309 310 311 312 313 314 315 315 316 317 318 320 320 320 321 321 321 320 320 320 320 319 319 318 317 316 315 315 314 314 314 313 313 312 312 312 312 312 312 313 313 314 313 314 316 318 318 317 317 316 315 315 315 316 317 317 317 317 318 319 319
287 288 290 291 292 294 295 296 297 297 297 297 297 298 300 301 302 303 304 305 307 308 310 311 312 313 313 314 315 316 317 317 318 319 320 321 321 321 320 320 320 320 320 320 319 319 319 318 317 316 315 314 314 313 313 312 312 312 312 312 312 313 314 314 314 314 314 315 318 319 318 317 317 317 316 316 316 316 317 318 318 318 319 319 319
289 290 291 292 293 294 295 296 296 296 297 297 298 300 302 304 305 307 308 309 310 311 312 313 314 314 315 315 316 317 318 318 319 320 321 321 321 320 320 320 320 320 320 320 319 319 319 318 316 315 314 314 313 312 312 312 311 312 312 312 313 315 315 315 315 315 315 317 319 319 318 318 318 317 316 315 316 317 318 319 319 319 319 319 318
289 290 291 291 293 293 294 295 295 296 297 299 301 303 305 307 308 309 310 311 312 313 314 314 314 315 315 316 317 317 318 319 319 320 321 321 320 320 320 320 321 320 320 320 319 319 318 317 316 315 314 313 312 311 311 311 311 312 313 314 315 316 316 316 316 316 317 318 319 318 318 318 318 316 315 315 317 318 319 319 319 319 318 318 318
289 290 291 291 293 294 295 296 297 299 300 302 304 306 307 308 309 310 310 311 312 313 314 314 315 315 315 316 317 317 318 319 319 320 320 320 320 320 320 321 321 320 320 320 320 319 318 316 315 313 312 311 311 310 310 311 312 313 314 315 316 317 317 317 317 317 318 318 318 318 317 318 318 316 316 317 319 319 320 320 319 318 317 317 318
291 292 293 294 295 297 298 300 301 302 304 305 306 307 308 308 309 310 310 311 312 313 314 314 314 315 315 315 316 317 318 318 318 319 320 320 321 321 320 320 320 320 320 320 319 318 317 315 313 312 311 311 310 310 311 313 314 315 316 317 318 318 318 318 318 318 318 318 318 318 318 319 318 317 318 320 320 320 319 319 318 317 317 318 318
294 296 297 298 299 300 301 302 303 304 305 306 306 307 308 308 309 309 310 311 312 313 313 313 314 314 314 315 316 317 317 318 318 319 320 320 320 320 320 320 320 320 320 320 319 317 315 314 312 311 311 311 310 311 313 315 316 316 317 318 318 318 318 318 318 318 318 318 318 318 318 320 320 319 320 320 319 318 317 317 317 316 317 318 318
296 297 298 299 300 301 302 302 303 304 305 305 306 306 307 308 308 309 309 310 311 312 312 312 313 313 313 314 315 316 317 317 318 319 320 320 320 320 320 320 320 319 320 320 319 317 315 313 311 311 311 311 311 313 315 316 317 317 318 318 318 317 318 318 318 318 318 318 318 318 319 321 321 320 319 318 317 316 315 315 316 317 318 318 319
296 297 297 298 299 300 301 301 302 303 303 304 304 305 306 306 307 307 308 309 310 311 311 311 311 312 313 314 315 316 316 316 318 319 319 320 320 320 320 320 320 320 321 321 319 316 314 313 311 311 312 312 313 314 316 316 317 317 317 317 317 317 317 317 317 317 317 317 318 319 321 321 320 318 317 316 315 314 315 316 318 319 320 320 321
294 295 296 296 297 299 299 300 301 301 302 302 303 304 304 305 306 306 307 308 309 310 310 310 311 312 313 314 315 315 315 316 318 318 319 320 320 320 321 321 321 321 322 321 318 315 313 311 311 311 312 313 313 314 315 316 317 316 316 316 316 317 317 317 317 317 317 318 320 321 321 319 317 316 315 315 315 317 318 320 322 322 322 323 323
293 294 294 295 297 297 298 299 300 300 301 301 302 303 303 304 305 306 307 308 309 310 309 310 311 311 312 313 314 315 315 316 318 319 319 320 321 321 321 321 321 322 322 321 317 314 312 311 310 311 312 312 313 314 315 316 316 315 316 316 316 317 317 317 317 318 319 321 322 321 319 318 317 317 318 319 320 321 322 323 324 324 324 324 324
291 292 293 295 296 297 297 298 299 300 300 301 301 302 303 304 305 306 306 307 309 309 309 310 310 311 312 313 314 315 315 317 318 319 320 321 321 322 321 321 322 322 322 319 315 313 312 310 309 310 311 312 313 314 315 316 315 315 316 317 317 317 317 318 319 320 321 322 322 320 320 320 321 321 322 323 323 323 324 325 326 326 325 324 323
290 291 292 294 295 296 297 298 299 299 300 301 301 302 303 304 305 306 307 307 308 309 309 310 310 311 312 313 314 315 316 318 319 320 320 321 321 322 322 322 322 321 320 317 315 313 311 309 309 310 311 313 314 314 315 315 315 316 317 317 318 318 318 320 322 323 323 323 323 323 324 325 325 325 325 325 325 325 325 326 326 325 324 323 322
289 290 292 293 294 295 297 298 299 299 300 301 301 302 303 304 305 306 307 307 308 309 309 310 310 311 312 313 315 316 317 318 319 320 320 321 321 321 321 321 321 320 318 316 314 312 309 308 309 311 312 313 314 314 315 316 317 318 318 318 318 320 321 323 324 325 325 326 327 327 328 328 327 327 327 327 327 326 326 326 326 325 323 322 320
288 290 291 292 294 295 297 297 298 299 300 301 301 302 303 304 305 306 307 308 308 309 310 310 311 312 313 314 315 316 317 318 319 319 320 320 321 321 321 321 320 318 316 313 311 310 308 309 310 312 313 313 314 315 316 317 318 319 319 320 321 323 324 325 326 327 327 328 329 329 328 328 328 327 327 327 327 326 326 325 325 323 322 321 320
288 290 291 292 294 295 296 297 298 299 300 300 301 302 304 304 305 306 307 308 309 309 310 311 312 313 314 314 315 316 317 318 319 319 319 320 320 321 321 321 319 316 314 311 309 308 308 309 311 312 313 314 315 316 317 318 319 320 321 322 324 325 326 327 328 328 329 329 329 329 329 328 328 327 327 327 327 327 326 326 325 324 323 322 321
288 290 291 293 294 295 296 297 298 299 299 300 301 303 304 305 306 307 307 308 309 310 310 311 312 313 313 314 315 316 317 318 318 319 319 320 321 321 321 319 316 313 311 309 308 308 308 309 311 312 314 316 317 317 319 320 320 322 323 325 326 327 327 328 328 329 329 329 330 330 330 329 328 328 328 328 329 328 328 328 327 327 326 325 323
289 290 292 293 294 295 296 297 298 299 300 301 302 303 304 305 306 307 307 308 309 310 311 311 312 312 313 314 315 315 316 317 318 318 319 320 321 321 320 317 314 310 308 307 307 308 309 311 313 314 316 317 317 318 319 321 322 324 325 325 326 327 327 328 329 330 330 330 330 330 330 330 330 330 330 330 330 329 329 330 330 330 329 327 325
289 291 292 293 294 295 296 297 298 299 300 301 302 303 304 305 306 306 307 308 309 310 310 311 311 312 312 313 314 315 316 317 317 318 319 320 321 320 318 316 312 308 306 306 307 309 311 313 314 315 316 316 317 318 320 321 323 325 325 325 325 326 327 328 329 330 330 330 330 331 331 331 331 331 331 331 331 331 331 331 331 331 329 328 326
289 290 291 292 293 295 296 297 299 300 300 301 302 303 304 305 305 306 307 307 308 309 310 310 310 311 312 313 313 314 315 316 317 319 320 320 320 319 317 314 310 308 307 308 310 312 313 314 314 315 315 316 317 319 321 323 324 324 323 323 324 325 326 327 328 329 329 330 331 333 333 333 333 333 333 333 333 333 333 332 331 330 329 328 327
288 289 291 292 293 295 296 298 299 299 300 301 301 302 303 304 305 305 306 307 307 308 309 309 309 310 311 312 313 314 315 316 318 319 319 319 319 318 316 313 311 309 309 310 312 313 313 314 315 315 316 317 318 320 322 323 323 322 321 322 322 323 325 326 327 328 329 330 332 334 335 335 335 336 336 336 335 334 333 332 331 330 329 328 327
288 289 290 292 293 295 296 297 298 298 299 300 301 302 302 303 304 304 305 306 307 307 308 308 309 310 311 312 313 315 316 317 318 319 319 319 318 317 315 313 312 310 311 311 312 312 314 314 315 315 316 318 319 321 321 321 320 320 320 320 321 322 323 324 325 327 328 330 332 334 335 336 337 338 338 337 336 335 334 332 331 330 329 328 327
287 289 290 292 293 294 296 296 297 298 298 299 300 301 301 302 303 304 305 305 306 306 307 307 308 310 311 312 313 315 316 317 318 319 319 319 319 317 315 313 312 311 311 311 312 314 315 315 315 316 317 319 319 320 320 319 319 319 318 319 320 320 321 323 325 326 328 330 331 332 334 336 337 337 337 336 335 334 334 332 331 330 329 328 327
287 289 290 291 293 294 295 296 296 297 298 298 299 300 300 301 302 303 304 304 305 305 306 307 308 310 311 312 313 315 316 317 318 319 320 320 319 318 316 314 312 311 311 312 314 315 315 315 316 318 319 319 319 319 319 318 318 318 317 318 318 319 320 322 324 326 327 329 330 331 333 335 336 336 335 335 334 334 333 332 331 330 329 328 328
287 289 290 291 292 293 294 295 295 296 297 297 298 299 300 301 302 302 303 303 304 304 305 307 308 309 310 312 313 315 316 317 318 319 320 320 320 318 316 315 314 313 314 315 315 315 315 316 318 319 318 318 318 318 317 317 317 316 316 316 317 318 319 321 323 325 326 328 329 330 332 333 334 334 334 334 334 333 333 332 331 331 330 329 328
287 289 290 291 291 292 293 294 294 295 296 296 297 298 299 300 301 301 302 302 303 304 305 306 307 309 310 312 314 315 316 317 319 320 321 321 321 319 317 316 316 315 315 316 316 317 317 317 317 317 317 317 316 316 316 316 316 315 315 315 316 317 318 320 323 325 326 327 329 330 330 331 332 333 333 334 334 333 333 332 331 331 331 331 330
287 288 289 289 290 291 292 292 293 294 294 295 296 297 298 299 300 300 300 301 302 303 305 306 307 308 310 312 314 315 316 318 320 322 323 323 322 321 319 318 317 317 317 317 317 317 316 315 315 316 316 315 315 315 315 315 314 314 314 315 316 317 319 320 322 324 325 326 328 329 330 330 330 331 332 333 334 334 333 332 331 331 332 332 333
286 287 287 288 288 289 290 291 292 293 293 294 295 296 297 298 299 299 300 301 302 303 304 305 307 309 311 313 315 316 319 321 324 325 326 326 324 322 320 318 317 317 316 315 314 313 312 313 314 314 314 313 313 313 313 313 313 313 314 314 315 317 318 319 321 323 325 326 328 329 329 329 329 330 332 333 334 334 333 333 332 332 333 334 334
284 285 285 285 286 288 289 290 291 291 292 293 294 295 296 297 298 298 299 300 302 303 304 305 308 310 312 315 318 321 323 326 327 328 327 326 324 320 318 316 314 313 312 311 310 310 310 311 313 313 312 312 312 312 312 312 312 312 313 314 315 316 317 319 321 322 324 325 326 328 328 329 329 330 331 332 333 334 334 334 334 334 334 334 334
282 283 283 284 285 286 287 288 289 290 290 291 292 294 295 296 296 297 298 300 301 302 304 306 309 312 315 318 322 325 327 327 328 327 326 325 323 320 316 313 311 309 308 308 308 309 310 311 312 313 312 312 312 311 312 312 312 313 314 315 316 317 318 319 321 322 323 324 325 327 328 329 329 330 330 331 333 334 335 335 335 335 335 335 334
281 282 282 283 284 285 286 287 287 288 289 290 292 293 294 295 296 297 298 299 301 302 304 307 310 313 318 322 324 326 326 326 326 325 324 323 323 321 319 316 313 312 310 310 310 311 312 313 313 312 312 311 311 310 311 312 312 313 314 315 316 317 318 319 320 321 322 323 324 326 327 328 328 330 331 332 333 334 335 336 336 336 335 335 334
280 281 281 282 283 284 285 285 286 287 288 290 291 292 293 294 295 296 297 298 300 301 304 306 310 314 320 323 324 325 325 325 325 324 323 322 322 321 321 319 318 316 314 313 312 312 312 312 312 311 310 310 310 310 310 310 311 311 312 313 315 316 316 317 319 320 321 322 323 324 326 327 328 330 331 332 333 334 335 336 337 336 335 335 334
279 280 280 281 282 283 284 284 285 286 288 289 290 291 292 293 294 296 297 298 299 301 303 306 310 316 320 322 323 323 324 323 323 322 322 321 321 320 319 319 318 317 315 313 312 311 310 310 310 309 308 309 309 309 309 310 310 311 311 312 312 313 314 315 317 318 319 321 322 323 325 328 329 331 332 333 334 335 335 335 336 336 336 335 334
278 279 279 280 281 282 283 284 285 286 287 288 289 290 291 292 293 294 296 296 298 301 304 308 313 318 321 321 321 321 321 321 321 321 321 320 319 318 317 318 318 317 317 316 314 312 311 310 309 309 309 309 309 309 309 310 310 311 311 312 312 312 313 314 315 317 318 320 321 323 326 328 330 331 332 334 334 334 334 334 335 335 335 335 334
Height
10900 10899 10899 10898 10897 10897 10896 10895 10894 10893 10891 10890 10889 10888 10886 10884 10882 10880 10878 10876 10874 10871 10869 10867 10864 10862 10859 10856 10854 10851 10848 10845 10843 10840 10836 10833 10830 10826 10822 10819 10815 10812 10808 10805 10801 10796 10793 10789 10785 10781 10777 10772 10768 10764 10760 10755 10750 10745 10740 10735 10730 10725 10719 10714 10708 10702 10697 10691 10686 10680 10675 10670 10665 10660 10655 10650 10646 10641 10636 10631 10625 10619 10614 10608 10602
10897 10897 10896 10896 10895 10894 10894 10892 10891 10890 10889 10887 10886 10885 10883 10881 10879 10877 10875 10873 10870 10868 10865 10863 10860 10858 10855 10852 10849 10847 10844 10840 10838 10835 10831 10828 10824 10821 10817 10814 10810 10806 10803 10800 10796 10791 10787 10783 10779 10775 10770 10766 10762 10758 10753 10749 10744 10739 10734 10729 10723 10718 10712 10706 10701 10695 10689 10683 10678 10672 10667 10662 10657 10652 10647 10642 10638 10633 10627 10621 10615 10610 10604 10599 10593
10895 10895 10894 10893 10893 10892 10891 10890 10889 10887 10886 10884 10883 10881 10879 10877 10876 10873 10871 10869 10867 10864 10862 10859 10856 10854 10851 10848 10845 10842 10839 10836 10833 10830 10827 10823 10819 10816 10812 10808 10804 10801 10797 10794 10789 10785 10781 10777 10772 10768 10764 10760 10755 10751 10747 10742 10737 10732 10727 10721 10716 10710 10705 10699 10693 10687 10681 10675 10670 10665 10660 10654 10649 10644 10639 10634 10629 10624 10618 10612 10606 10600 10595 10589 10583
10893 10892 10892 10891 10890 10889 10888 10886 10885 10884 10883 10881 10879 10877 10876 10874 10872 10870 10867 10865 10863 10861 10858 10855 10852 10849 10846 10843 10840 10837 10834 10831 10828 10825 10822 10818 10815 10811 10807 10803 10799 10795 10791 10787 10782 10778 10775 10770 10766 10762 10758 10753 10749 10745 10740 10735 10730 10725 10720 10714 10708 10703 10697 10691 10685 10679 10673 10667 10662 10656 10651 10646 10642 10636 10631 10626 10620 10615 10609 10602 10597 10591 10585 10579 10574
10891 10890 10889 10889 10887 10886 10884 10883 10881 10880 10879 10877 10875 10874 10872 10870 10868 10866 10863 10861 10859 10857 10854 10851 10847 10844 10841 10838 10835 10832 10829 10826 10823 10820 10817 10813 10810 10806 10802 10797 10793 10789 10785 10781 10776 10772 10768 10764 10760 10755 10751 10747 10743 10738 10733 10728 10723 10718 10712 10707 10701 10695 10689 10683 10677 10671 10665 10659 10653 10648 10643 10638 10633 10628 10623 10617 10611 10605 10599 10593 10587 10581 10575 10569 10564
10888 10888 10887 10886 10884 10883 10881 10879 10877 10876 10875 10874 10872 10870 10868 10866 10864 10862 10859 10857 10855 10852 10849 10846 10843 10839 10836 10833 10830 10827 10824 10821 10818 10815 10812 10808 10805 10801 10796 10792 10788 10784 10780 10775 10770 10766 10761 10757 10753 10749 10744 10740 10736 10731 10726 10721 10716 10710 10705 10699 10693 10687 10681 10674 10668 10662 10656 10650 10645 10639 10634 10629 10624 10619 10614 10608 10601 10595 10589 10583 10577 10572 10566 10559 10553
10886 10885 10884 10882 10881 10879 10877 10875 10873 10872 10871 10870 10868 10866 10864 10862 10860 10858 10855 10853 10850 10848 10845 10842 10839 10835 10832 10828 10825 10822 10819 10816 10813 10810 10806 10803 10800 10796 10791 10786 10782 10779 10774 10769 10764 10760 10755 10750 10746 10742 10737 10733 10729 10724 10719 10714 10708 10703 10697 10691 10685 10679 10672 10666 10659 10653 10647 10641 10636 10630 10625 10620 10615 10610 10605 10599 10591 10585 10579 10573 10567 10561 10555 10549 10543
10883 10882 10880 10879 10877 10875 10873 10871 10870 10868 10867 10866 10864 10862 10860 10857 10855 10853 10851 10849 10846 10843 10841 10838 10834 10831 10827 10824 10820 10816 10813 10810 10807 10804 10801 10798 10794 10790 10786 10781 10777 10773 10768 10764 10759 10754 10749 10744 10739 10735 10730 10726 10721 10716 10711 10706 10700 10695 10688 10682 10676 10670 10664 10657 10651 10644 10638 10632 10626 10621 10616 10611 10606 10601 10595 10589 10582 10575 10569 10563 10557 10551 10545 10539 10533
10879 10878 10876 10874 10872 10871 10869 10868 10866 10865 10863 10862 10860 10858 10855 10853 10851 10848 10846 10844 10841 10839 10836 10833 10830 10826 10823 10819 10815 10811 10807 10804 10802 10798 10795 10792 10789 10784 10780 10776 10771 10766 10762 10758 10753 10748 10743 10738 10733 10728 10723 10718 10713 10708 10703 10698 10692 10686 10680 10674 10667 10661 10655 10648 10641 10635 10628 10622 10617 10611 10607 10601 10596 10591 10586 10579 10571 10564 10558 10552 10546 10540 10534 10528 10523
10875 10874 10872 10870 10868 10867 10866 10864 10862 10861 10859 10857 10856 10854 10851 10848 10846 10844 10841 10839 10837 10834 10832 10829 10825 10822 10818 10815 10810 10806 10802 10799 10796 10792 10789 10786 10783 10779 10774 10770 10765 10761 10756 10752 10747 10742 10737 10731 10726 10720 10715 10710 10705 10700 10695 10690 10684 10678 10672 10665 10658 10652 10645 10639 10632 10626 10619 10612 10607 10602 10596 10591 10586 10581 10575 10568 10561 10553 10547 10542 10535 10529 10524 10518 10512
10871 10869 10867 10866 10864 10863 10861 10859 10857 10856 10854 10853 10851 10849 10847 10844 10842 10839 10836 10834 10832 10830 10827 10824 10821 10817 10814 10810 10806 10801 10797 10794 10790 10786 10783 10779 10776 10773 10768 10764 10759 10755 10750 10745 10741 10736 10730 10724 10718 10712 10707 10701 10696 10692 10687 10681 10675 10669 10663 10657 10650 10642 10635 10629 10623 10616 10609 10602 10596 10591 10586 10581 10577 10572 10565 10557 10550 10543 10536 10531 10525 10519 10513 10507 10502
10865 10864 10862 10861 10860 10859 10857 10855 10853 10850 10849 10848 10847 10845 10843 10840 10837 10835 10832 10829 10827 10825 10823 10819 10816 10813 10810 10805 10801 10797 10793 10788 10784 10781 10776 10772 10769 10766 10762 10757 10753 10748 10743 10739 10734 10729 10723 10717 10711 10704 10698 10693 10687 10682 10677 10671 10666 10660 10654 10648 10641 10633 10626 10619 10613 10606 10599 10592 10586 10581 10576 10572 10568 10562 10554 10545 10539 10532 10525 10520 10515 10509 10503 10497 10492
10860 10858 10857 10856 10855 10854 10852 10850 10848 10845 10844 10843 10841 10840 10838 10835 10833 10830 10828 10825 10823 10821 10818 10815 10811 10809 10806 10801 10796 10793 10788 10784 10780 10776 10771 10766 10763 10760 10756 10752 10746 10742 10737 10732 10727 10722 10716 10710 10703 10696 10689 10683 10678 10673 10668 10662 10656 10650 10645 10639 10632 10625 10617 10610 10603 10595 10588 10582 10576 10570 10566 10563 10559 10552 10543 10535 10528 10522 10515 10510 10505 10499 10493 10487 10482
10855 10853 10852 10851 10850 10848 10847 10845 10843 10841 10839 10837 10835 10834 10832 10830 10828 10826 10823 10820 10818 10816 10813 10810 10807 10804 10801 10797 10793 10789 10784 10780 10777 10771 10766 10761 10757 10753 10750 10746 10740 10735 10730 10725 10719 10714 10708 10701 10694 10686 10680 10674 10668 10663 10658 10652 10646 10641 10635 10629 10622 10615 10608 10600 10592 10585 10578 10572 10566 10561 10557 10554 10548 10540 10533 10525 10517 10511 10505 10500 10495 10489 10483 10478 10473
10850 10849 10847 10846 10845 10843 10842 10840 10838 10836 10834 10831 10829 10828 10826 10825 10823 10821 10818 10815 10812 10810 10807 10804 10802 10799 10796 10793 10789 10785 10779 10775 10772 10767 10762 10756 10750 10745 10741 10737 10733 10727 10722 10716 10711 10705 10699 10692 10685 10677 10671 10665 10659 10654 10648 10643 10637 10631 10624 10618 10612 10605 10597 10590 10582 10574 10568 10562 10555 10551 10548 10544 10537 10529 10522 10514 10506 10501 10496 10491 10485 10480 10474 10469 10464
10845 10844 10842 10841 10839 10838 10837 10835 10834 10831 10829 10826 10824 10822 10821 10819 10817 10815 10812 10809 10806 10803 10800 10798 10795 10793 10791 10788 10784 10780 10774 10768 10764 10760 10756 10751 10744 10738 10733 10728 10724 10718 10713 10707 10702 10697 10690 10683 10676 10669 10662 10656 10650 10644 10638 10632 10626 10620 10613 10607 10601 10594 10587 10579 10572 10564 10557 10551 10545 10542 10539 10533 10526 10518 10510 10503 10496 10491 10487 10482 10477 10471 10466 10461 10456
10841 10839 10837 10836 10834 10833 10832 10830 10829 10827 10824 10821 10818 10816 10815 10813 10811 10809 10806 10803 10800 10796 10793 10792 10788 10785 10783 10781 10777 10774 10769 10762 10758 10753 10748 10744 10738 10731 10725 10720 10715 10710 10704 10699 10694 10688 10681 10675 10668 10660 10653 10646 10639 10633 10627 10622 10615 10609 10602 10596 10590 10583 10577 10569 10561 10554 10546 10540 10536 10534 10530 10522 10515 10507 10499 10493 10487 10482 10478 10473 10468 10463 10458 10453 10448
10836 10835 10833 10831 10829 10828 10826 10825 10823 10821 10819 10816 10813 10811 10809 10807 10805 10803 10799 10797 10794 10790 10786 10784 10781 10776 10774 10772 10769 10766 10762 10756 10751 10747 10741 10736 10730 10724 10717 10711 10707 10702 10696 10691 10686 10679 10673 10666 10658 10651 10643 10635 10628 10622 10616 10611 10604 10598 10591 10585 10579 10573 10566 10558 10551 10543 10536 10530 10527 10525 10519 10512 10505 10497 10490 10484 10478 10474 10469 10465 10460 10455 10450 10445 10440
10832 10830 10828 10826 10824 10823 10821 10819 10817 10815 10813 10810 10807 10805 10803 10800 10798 10796 10792 10789 10787 10783 10779 10775 10773 10769 10766 10764 10761 10757 10754 10749 10744 10739 10735 10729 10722 10717 10711 10705 10699 10694 10689 10683 10677 10670 10663 10656 10648 10641 10633 10625 10618 10612 10606 10600 10594 10588 10581 10575 10569 10562 10555 10548 10541 10533 10527 10522 10519 10515 10508 10502 10496 10488 10481 10475 10471 10466 10462 10457 10452 10447 10443 10438 10434
10827 10825 10823 10822 10820 10818 10816 10814 10811 10809 10807 10804 10801 10799 10797 10794 10791 10788 10785 10782 10779 10776 10772 10768 10764 10761 10757 10755 10752 10749 10746 10742 10737 10732 10728 10723 10716 10709 10704 10699 10693 10686 10681 10675 10668 10662 10654 10646 10638 10630 10623 10615 10608 10602 10595 10590 10585 10578 10572 10566 10559 10552 10545 10538 10531 10524 10517 10513 10509 10504 10498 10493 10487 10480 10473 10468 10464 10459 10454 10449 10444 10439 10435 10431 10426
10821 10820 10818 10817 10815 10814 10811 10809 10806 10804 10801 10798 10796 10793 10791 10788 10784 10781 10778 10774 10772 10769 10766 10761 10757 10753 10749 10746 10744 10741 10737 10734 10729 10725 10722 10717 10711 10703 10696 10690 10685 10678 10672 10666 10659 10653 10645 10637 10628 10620 10613 10605 10598 10592 10585 10580 10575 10569 10563 10557 10550 10543 10536 10529 10522 10515 10509 10504 10499 10493 10488 10484 10479 10471 10465 10461 10456 10451 10446 10442 10437 10432 10428 10424 10419
10816 10815 10813 10812 10811 10808 10805 10803 10801 10798 10795 10793 10790 10787 10785 10782 10778 10775 10771 10768 10765 10762 10758 10754 10750 10746 10741 10738 10735 10732 10729 10726 10722 10718 10715 10710 10705 10698 10689 10682 10677 10670 10664 10657 10650 10643 10636 10627 10618 10610 10603 10595 10588 10581 10575 10570 10565 10559 10553 10547 10541 10534 10526 10519 10513 10506 10501 10496 10490 10485 10480 10476 10470 10463 10458 10453 10448 10444 10439 10434 10430 10425 10421 10416 10411
10810 10809 10807 10806 10804 10801 10799 10796 10794 10792 10789 10786 10783 10780 10778 10775 10772 10768 10764 10760 10758 10755 10751 10746 10743 10739 10734 10730 10727 10723 10720 10717 10713 10710 10706 10701 10697 10691 10683 10676 10669 10662 10655 10649 10641 10632 10625 10617 10609 10601 10593 10585 10578 10571 10565 10559 10554 10549 10543 10538 10532 10525 10517 10511 10505 10499 10494 10488 10482 10477 10472 10468 10462 10455 10450 10445 10440 10436 10432 10428 10423 10418 10413 10408 10403
10804 10802 10800 10799 10797 10794 10792 10790 10787 10785 10782 10779 10776 10774 10771 10768 10765 10761 10757 10753 10750 10748 10744 10739 10735 10732 10727 10723 10720 10716 10711 10707 10704 10702 10697 10692 10688 10683 10676 10669 10662 10654 10647 10640 10632 10623 10615 10606 10598 10590 10583 10576 10569 10561 10555 10549 10544 10539 10533 10528 10522 10516 10509 10503 10497 10492 10486 10481 10475 10470 10465 10461 10455 10448 10444 10439 10434 10429 10425 10421 10417 10411 10406 10401 10396
10797 10796 10794 10792 10790 10788 10786 10783 10780 10778 10776 10773 10770 10767 10764 10761 10758 10754 10750 10747 10743 10741 10736 10732 10728 10724 10721 10717 10713 10709 10703 10697 10694 10692 10687 10683 10679 10674 10668 10662 10654 10648 10641 10632 10623 10613 10604 10595 10586 10579 10573 10567 10560 10553 10546 10539 10534 10530 10524 10519 10513 10507 10502 10496 10490 10485 10480 10474 10469 10463 10458 10453 10447 10442 10437 10433 10428 10423 10418 10414 10410 10405 10399 10394 10388
10791 10790 10788 10786 10784 10782 10780 10777 10774 10772 10769 10766 10763 10761 10758 10755 10751 10747 10743 10740 10737 10734 10729 10725 10721 10716 10713 10710 10706 10701 10695 10690 10686 10682 10678 10673 10668 10662 10657 10653 10645 10638 10632 10623 10612 10601 10592 10585 10576 10568 10563 10558 10551 10545 10538 10532 10527 10522 10517 10511 10506 10500 10494 10489 10484 10478 10473 10467 10462 10456 10450 10445 10441 10436 10431 10427 10422 10417 10412 10408 10403 10398 10393 10387 10381
10784 10783 10781 10780 10778 10775 10774 10771 10768 10766 10763 10760 10757 10754 10751 10748 10744 10740 10736 10733 10731 10728 10722 10718 10714 10709 10706 10702 10699 10694 10688 10682 10679 10674 10668 10663 10658 10652 10645 10640 10634 10627 10621 10612 10602 10591 10582 10575 10566 10558 10554 10550 10544 10538 10532 10526 10521 10516 10511 10505 10499 10493 10488 10482 10477 10471 10465 10460 10454 10448 10443 10438 10434 10430 10425 10421 10416 10410 10405 10401 10397 10391 10385 10379 10373
10777 10776 10774 10773 10771 10769 10767 10764 10762 10760 10757 10754 10751 10748 10745 10742 10738 10733 10729 10726 10724 10720 10714 10710 10706 10702 10699 10695 10691 10687 10680 10675 10670 10665 10659 10653 10647 10641 10633 10627 10622 10616 10610 10603 10592 10581 10572 10565 10558 10551 10547 10543 10538 10532 10526 10521 10515 10510 10504 10498 10493 10487 10482 10476 10470 10464 10458 10452 10447 10442 10437 10433 10429 10425 10420 10416 10410 10404 10399 10394 10390 10384 10378 10372 10366
10771 10770 10767 10766 10764 10762 10760 10757 10755 10753 10750 10747 10744 10741 10738 10735 10731 10726 10722 10719 10717 10713 10706 10703 10699 10694 10691 10687 10683 10679 10673 10667 10662 10655 10649 10643 10636 10630 10622 10614 10608 10604 10599 10594 10584 10572 10563 10557 10550 10545 10541 10537 10531 10525 10520 10515 10509 10503 10497 10492 10486 10481 10476 10470 10463 10457 10451 10446 10442 10437 10433 10429 10424 10419 10415 10409 10404 10398 10393 10387 10382 10376 10370 10364 10359
10765 10763 10761 10759 10756 10755 10753 10750 10748 10746 10743 10740 10736 10733 10731 10728 10723 10719 10715 10711 10709 10704 10698 10694 10690 10685 10682 10678 10674 10670 10664 10660 10654 10646 10640 10634 10627 10621 10613 10603 10597 10592 10588 10584 10576 10564 10555 10549 10544 10540 10535 10529 10524 10519 10514 10509 10503 10497 10492 10486 10480 10475 10469 10463 10457 10451 10446 10442 10438 10434 10429 10424 10419 10413 10408 10403 10398 10392 10386 10380 10374 10369 10363 10357 10352
10758 10756 10755 10752 10750 10748 10746 10743 10741 10738 10735 10732 10729 10726 10723 10720 10716 10712 10707 10703 10700 10695 10689 10685 10680 10676 10673 10669 10664 10660 10656 10652 10646 10638 10632 10626 10619 10613 10607 10599 10591 10584 10578 10573 10566 10556 10547 10540 10536 10533 10527 10522 10518 10513 10508 10502 10497 10491 10486 10480 10474 10469 10463 10457 10452 10448 10443 10439 10434 10429 10423 10418 10412 10407 10402 10397 10391 10385 10379 10373 10367 10362 10356 10350 10344
10751 10750 10748 10745 10744 10742 10739 10737 10733 10730 10728 10724 10721 10718 10716 10712 10708 10704 10699 10694 10690 10685 10680 10675 10670 10665 10662 10658 10653 10649 10645 10643 10638 10631 10624 10618 10611 10604 10598 10591 10583 10575 10568 10562 10556 10548 10540 10533 10529 10526 10520 10515 10511 10506 10501 10496 10491 10485 10480 10474 10468 10463 10458 10453 10449 10445 10440 10434 10429 10424 10418 10412 10406 10401 10395 10389 10384 10378 10372 10366 10360 10355 10349 10343 10337
10744 10743 10741 10739 10737 10735 10732 10729 10726 10723 10720 10716 10713 10710 10707 10703 10699 10695 10690 10685 10681 10675 10670 10666 10660 10656 10652 10649 10644 10639 10635 10632 10627 10621 10615 10609 10603 10595 10587 10580 10572 10564 10558 10552 10546 10540 10533 10526 10523 10519 10514 10509 10504 10499 10494 10489 10484 10479 10474 10469 10464 10459 10454 10450 10446 10441 10435 10429 10424 10418 10412 10406 10400 10394 10388 10383 10377 10371 10365 10359 10354 10348 10342 10335 10329
10737 10736 10734 10732 10730 10728 10725 10722 10718 10715 10712 10708 10705 10702 10699 10694 10690 10686 10681 10677 10672 10666 10661 10656 10651 10647 10643 10640 10635 10630 10625 10621 10616 10611 10605 10599 10594 10587 10578 10571 10563 10554 10548 10543 10537 10532 10526 10520 10516 10512 10507 10503 10497 10492 10487 10483 10478 10474 10469 10464 10460 10455 10450 10446 10441 10436 10430 10424 10418 10413 10407 10401 10394 10388 10382 10376 10370 10364 10358 10352 10347 10341 10334 10327 10320
10730 10729 10726 10725 10722 10720 10718 10714 10711 10708 10704 10700 10697 10693 10690 10686 10682 10677 10672 10668 10663 10658 10653 10648 10643 10638 10633 10629 10625 10620 10615 10611 10606 10601 10595 10589 10584 10578 10570 10564 10557 10549 10542 10536 10531 10525 10520 10514 10509 10504 10500 10495 10491 10486 10482 10478 10474 10469 10465 10460 10455 10451 10446 10440 10435 10430 10424 10418 10413 10408 10402 10395 10389 10382 10376 10370 10364 10358 10352 10345 10339 10333 10326 10319 10312
10723 10721 10719 10717 10714 10712 10710 10706 10703 10699 10695 10691 10688 10685 10681 10677 10673 10669 10664 10660 10655 10650 10646 10641 10635 10630 10625 10621 10617 10612 10607 10602 10597 10591 10586 10580 10575 10570 10563 10557 10551 10543 10536 10530 10524 10518 10513 10508 10503 10498 10494 10490 10486 10482 10478 10474 10469 10465 10460 10455 10450 10446 10440 10434 10429 10424 10418 10413 10408 10402 10396 10390 10383 10377 10370 10364 10358 10352 10345 10338 10331 10325 10318 10312 10305
10715 10713 10710 10708 10706 10704 10701 10698 10695 10691 10687 10683 10680 10676 10673 10669 10665 10660 10656 10652 10647 10643 10638 10633 10628 10623 10618 10613 10609 10605 10600 10594 10588 10582 10576 10571 10566 10560 10554 10548 10542 10535 10528 10522 10516 10511 10506 10503 10499 10494 10490 10486 10482 10478 10473 10469 10465 10460 10455 10450 10445 10440 10435 10429 10423 10418 10413 10407 10402 10396 10390 10384 10378 10372 10365 10358 10351 10345 10338 10331 10325 10319 10312 10306 10299
10707 10705 10703 10701 10698 10697 10694 10691 10687 10683 10679 10676 10672 10668 10665 10661 10657 10652 10648 10644 10639 10635 10630 10625 10619 10614 10610 10605 10601 10596 10591 10585 10580 10575 10568 10562 10556 10551 10544 10538 10532 10526 10520 10514 10509 10505 10500 10496 10493 10488 10485 10481 10477 10473 10468 10464 10460 10455 10450 10445 10440 10435 10430 10424 10418 10412 10406 10401 10395 10390 10384 10378 10373 10366 10359 10351 10345 10339 10332 10326 10319 10313 10306 10299 10292
10700 10697 10695 10693 10691 10690 10686 10683 10680 10675 10672 10668 10664 10661 10657 10653 10649 10644 10640 10636 10631 10626 10622 10617 10612 10606 10601 10596 10592 10587 10581 10575 10571 10565 10559 10553 10546 10541 10534 10528 10522 10517 10512 10508 10503 10500 10496 10491 10487 10483 10479 10475 10472 10467 10463 10459 10454 10449 10445 10440 10435 10430 10424 10420 10414 10407 10400 10394 10389 10384 10379 10372 10366 10360 10353 10346 10340 10334 10327 10320 10313 10306 10299 10292 10285
10692 10690 10688 10686 10684 10682 10679 10676 10672 10667 10664 10660 10656 10653 10649 10645 10641 10636 10632 10627 10622 10618 10613 10608 10603 10598 10592 10587 10582 10577 10572 10566 10562 10556 10550 10543 10538 10532 10526 10521 10516 10510 10506 10502 10497 10493 10489 10486 10482 10478 10475 10470 10466 10462 10458 10454 10449 10444 10439 10434 10429 10424 10419 10414 10408 10401 10395 10389 10383 10378 10372 10366 10360 10354 10348 10341 10334 10328 10322 10315 10308 10300 10293 10285 10278
10684 10682 10680 10678 10676 10674 10671 10668 10664 10659 10656 10652 10648 10644 10640 10636 10633 10628 10624 10619 10614 10609 10605 10600 10595 10589 10584 10579 10573 10569 10563 10558 10553 10548 10541 10535 10529 10524 10519 10515 10510 10505 10500 10496 10492 10488 10484 10481 10477 10473 10469 10465 10461 10457 10452 10448 10444 10439 10433 10428 10423 10418 10413 10408 10402 10395 10389 10383 10377 10371 10366 10360 10355 10350 10343 10336 10329 10323 10317 10310 10303 10295 10286 10279 10271
10676 10674 10672 10670 10668 10666 10664 10660 10656 10651 10647 10643 10639 10636 10632 10628 10624 10620 10616 10611 10606 10602 10597 10593 10587 10582 10577 10571 10566 10561 10556 10550 10545 10540 10535 10529 10523 10518 10513 10508 10504 10499 10495 10490 10487 10483 10479 10475 10472 10467 10464 10459 10455 10451 10447 10442 10438 10433 10428 10423 10417 10412 10406 10401 10395 10388 10382 10376 10370 10364 10360 10355 10349 10343 10338 10330 10323 10316 10310 10303 10296 10288 10280 10272 10264
10668 10666 10663 10661 10660 10658 10656 10652 10648 10643 10639 10635 10631 10627 10623 10620 10616 10612 10608 10603 10598 10594 10589 10585 10579 10574 10569 10564 10559 10554 10548 10542 10537 10532 10527 10522 10518 10512 10507 10502 10498 10493 10489 10486 10482 10478 10474 10470 10466 10462 10458 10454 10449 10445 10441 10437 10432 10427 10422 10416 10411 10405 10399 10394 10389 10382 10375 10370 10364 10357 10351 10347 10342 10336 10331 10325 10316 10309 10302 10295 10289 10281 10272 10263 10255
10659 10657 10654 10652 10651 10650 10647 10644 10640 10635 10630 10626 10623 10618 10614 10611 10608 10604 10599 10594 10590 10586 10581 10576 10571 10567 10562 10556 10551 10546 10540 10534 10529 10524 10519 10515 10510 10506 10501 10496 10492 10487 10484 10481 10477 10473 10469 10465 10461 10457 10453 10449 10444 10440 10435 10431 10426 10421 10416 10410 10404 10398 10393 10387 10382 10376 10369 10363 10358 10350 10343 10338 10333 10327 10323 10317 10309 10301 10294 10287 10280 10272 10263 10254 10246
10650 10648 10645 10644 10643 10642 10639 10636 10632 10627 10622 10618 10614 10610 10606 10603 10600 10595 10590 10585 10581 10577 10573 10569 10564 10559 10554 10548 10542 10536 10531 10525 10520 10515 10511 10507 10502 10498 10494 10490 10486 10482 10479 10476 10472 10469 10465 10460 10456 10452 10448 10443 10438 10433 10429 10424 10420 10414 10409 10404 10397 10391 10386 10381 10375 10369 10363 10356 10351 10345 10336 10330 10325 10318 10313 10308 10301 10294 10286 10279 10271 10263 10254 10245 10237
10641 10639 10636 10635 10634 10633 10631 10628 10624 10619 10613 10609 10605 10601 10597 10595 10591 10586 10582 10577 10573 10568 10564 10560 10556 10550 10546 10540 10534 10527 10522 10517 10512 10508 10504 10500 10496 10492 10488 10485 10481 10478 10475 10471 10468 10464 10459 10455 10451 10446 10442 10437 10431 10426 10422 10417 10412 10407 10402 10397 10391 10385 10379 10374 10368 10362 10356 10349 10344 10340 10331 10323 10317 10310 10303 10299 10292 10285 10278 10271 10262 10254 10245 10236 10228
10632 10630 10627 10625 10625 10624 10622 10619 10615 10610 10605 10601 10597 10592 10588 10585 10581 10578 10574 10569 10565 10560 10555 10551 10547 10542 10536 10531 10526 10520 10515 10510 10506 10503 10499 10496 10493 10489 10485 10481 10478 10474 10470 10466 10462 10458 10454 10449 10444 10439 10435 10430 10424 10419 10414 10410 10404 10399 10395 10390 10384 10378 10372 10367 10361 10355 10349 10343 10337 10333 10326 10318 10310 10303 10296 10289 10282 10275 10269 10263 10255 10246 10236 10228 10219
10622 10620 10617 10616 10615 10614 10612 10610 10606 10601 10597 10592 10589 10585 10579 10575 10572 10569 10566 10561 10557 10553 10548 10544 10539 10534 10529 10524 10519 10515 10510 10505 10501 10496 10493 10490 10487 10484 10480 10476 10473 10468 10464 10460 10456 10452 10447 10443 10438 10433 10428 10423 10418 10413 10408 10403 10398 10393 10388 10383 10377 10371 10365 10360 10355 10348 10342 10336 10330 10325 10320 10312 10304 10297 10288 10280 10272 10265 10259 10253 10246 10238 10228 10219 10211
10612 10610 10607 10606 10606 10605 10603 10600 10597 10592 10588 10583 10580 10577 10572 10566 10562 10559 10557 10554 10550 10546 10541 10537 10533 10528 10523 10518 10513 10509 10505 10500 10496 10491 10486 10482 10479 10475 10472 10468 10465 10461 10457 10453 10449 10445 10441 10437 10432 10427 10422 10418 10413 10408 10402 10397 10392 10387 10382 10377 10371 10365 10359 10353 10348 10342 10336 10329 10323 10318 10313 10305 10297 10289 10281 10271 10263 10254 10248 10243 10236 10229 10220 10211 10202
10602 10599 10597 10596 10595 10595 10593 10590 10586 10582 10578 10574 10571 10569 10565 10559 10554 10550 10547 10545 10542 10538 10534 10529 10524 10520 10516 10511 10506 10501 10497 10493 10489 10485 10481 10477 10473 10469 10466 10463 10459 10455 10451 10448 10444 10439 10435 10431 10426 10421 10417 10412 10407 10402 10397 10391 10386 10380 10376 10371 10365 10359 10353 10348 10342 10336 10329 10322 10315 10309 10304 10297 10288 10281 10273 10264 10254 10244 10236 10231 10226 10219 10211 10202 10194
10590 10588 10587 10586 10585 10584 10583 10580 10576 10572 10569 10566 10562 10559 10556 10552 10548 10543 10539 10536 10533 10530 10526 10521 10515 10511 10507 10504 10499 10495 10490 10486 10482 10479 10475 10471 10468 10464 10461 10457 10453 10449 10445 10441 10437 10433 10428 10424 10420 10415 10410 10406 10401 10396 10391 10385 10380 10374 10369 10364 10359 10353 10347 10341 10335 10328 10322 10315 10307 10300 10296 10288 10279 10271 10264 10257 10248 10238 10227 10220 10215 10209 10202 10193 10185